Flag for Canada Weather past 2 weeks in Summerside, Prince Edward Island, Canada

Now
36 °F

Chilly.


Feels Like: 29 °F
Forecast: 29 / 40 °F
Wind: 9 mph from Southwest

Location: Summerside Airport

Current Time: Apr 18, 2015 at 12:53:54 AM

Latest Report: Apr 18, 2015 at 12:00 AM


Visibility: N/A

Pressure: 29.69 "Hg

Humidity: 93%

Dew point: 34 °F

Location of SummersideLocation

Historic Weather in Summerside — Graph

°F

Summerside temperature yesterday

Maximum temperature yesterday: 44 °F (at 1:00 PM)
Minimum temperature yesterday: 33 °F (at 3:00 AM)
Average temperature yesterday: 39 °F

Past Weeks' High & Low Weather Summary

 TemperatureHumidityPressure
High47 °F (Apr 13, 6:00 PM)100% (Apr 11, 5:00 AM)30.59 "Hg (Apr 11, 5:00 AM)
Low10 °F (Apr 6, 8:00 AM)39% (Apr 6, 4:00 PM)29.10 "Hg (Apr 4, 6:00 PM)
Average32 °F75%30.03 "Hg
* Reported Apr 2 11:00 PM — Apr 17 11:00 PM, Summerside, Weather by CustomWeather, © 2015

Note: Actual official high and low records may vary slightly from our data, if they occured in-between our weather recording intervals... More about our weather records

Advertising

Summerside weather history for previous 24 hours

 ConditionsComfort  
Time TempWeatherWind HumidityBarometerVisibility
11:00 PM
Fri, Apr 17
38 °FChilly.2 mph89%29.68 "HgN/A
10:00 PM37 °FChilly.12 mph90%29.66 "HgN/A
9:00 PM39 °FChilly.16 mph86%29.65 "HgN/A
8:00 PM40 °FQuite cool.13 mph81%29.65 "HgN/A
7:00 PM43 °FQuite cool.14 mph78%29.64 "HgN/A
6:00 PM43 °FQuite cool.17 mph78%29.63 "HgN/A
5:00 PM44 °FQuite cool.17 mph78%29.64 "HgN/A
4:00 PM42 °FQuite cool.14 mph76%29.65 "HgN/A
3:00 PM42 °FQuite cool.18 mph75%29.68 "HgN/A
2:00 PM43 °FQuite cool.20 mph71%29.70 "HgN/A
1:00 PM44 °FQuite cool.18 mph69%29.73 "HgN/A
12:00 PM44 °FQuite cool.15 mph66%29.76 "HgN/A
11:00 AM42 °FQuite cool.17 mph67%29.79 "HgN/A
10:00 AM38 °FChilly.16 mph79%29.80 "HgN/A
9:00 AM38 °FChilly.14 mph78%29.84 "HgN/A
8:00 AM35 °FChilly.14 mph87%29.86 "HgN/A
7:00 AM35 °FChilly.14 mph84%29.87 "HgN/A
6:00 AM35 °FChilly.14 mph78%29.89 "HgN/A
5:00 AM36 °FChilly.17 mph79%29.90 "HgN/A
4:00 AM35 °FChilly.17 mph80%29.93 "HgN/A
3:00 AM33 °FChilly.20 mph86%29.96 "HgN/A
2:00 AM35 °FChilly.20 mph80%30.00 "HgN/A
1:00 AM33 °FChilly.17 mph80%30.05 "HgN/A
12:00 AM34 °FChilly.17 mph71%30.10 "HgN/A
Weather by CustomWeather, © 2015

See weather overviewHow to use our weather pages